Weather History for KCFE - April, 2014

Change the Weather History Date:

Thursday, April 3, 2014

  Actual Average (KSTC) Record (KSTC)
Temperature  
Mean Temperature 32 °F 38 °F  
Max Temperature 36 °F 49 °F 72 °F (1929)
Min Temperature 27 °F 27 °F 2 °F (1975)
Degree Days  
Heating Degree Days 34 27  
Month to date heating degree days 82  
Since 1 July heating degree days 7632  
Cooling Degree Days 0 0  
Month to date cooling degree days 0  
Year to date cooling degree days 0  
Moisture  
Dew Point 27 °F    
Average Humidity 80    
Maximum Humidity 94    
Minimum Humidity 54    
Precipitation  
Precipitation 0.00 in 0.07 in 1.05 in (1905)
Month to date precipitation 0.21  
Year to date precipitation 3.00  
Snow  
Snow 0.00 in 0.20 in 7.00 in (1937)
Month to date snowfall 0.5  
Since 1 July snowfall 43.2  
Snow Depth -    
Sea Level Pressure  
Sea Level Pressure 29.94 in    
Wind  
Wind Speed 10 mph (NE)    
Max Wind Speed 17 mph    
Max Gust Speed 23 mph    
Visibility 6 miles    
Events Rain , Snow    
T = Trace of Precipitation, MM = Missing Value Source: NWS Daily Summary

Daily Weather History Graph

Daily Weather History Graph

Search for Another Location

Airport or City:

Trip Planner

Search our weather history database for the weather conditions in past years. The results will help you decide how hot, cold, wet, or windy it might be!

Date:

Astronomy

Apr. 03, 2014 Rise Set
Actual Time 6:52 AM CDT 7:45 PM CDT
Civil Twilight 6:22 AM CDT 8:15 PM CDT
Nautical Twilight 5:46 AM CDT 8:51 PM CDT
Astronomical Twilight 5:09 AM CDT 9:29 PM CDT
Moon 9:12 AM CDT (4/3) No Moon Set
Length of Visible Light 13h 53m
Length of Day
12h 53m
Waxing Crescent, 17% of the Moon is Illuminated
Apr 3
Waxing Crescent
Apr 7
First Quarter
Apr 15
Full
Apr 22
Last Quarter
Apr 29
New

Hourly Weather History & Observations

Time (CDT) Temp. Windchill Dew Point Humidity Pressure Visibility Wind Dir Wind Speed Gust Speed Precip Events Conditions
12:16 AM 35.8 °F 29.4 °F 22.3 °F 58% 30.06 in 10.0 mi NE 8.1 mph - N/A   Overcast
12:35 AM 36.5 °F 30.3 °F 21.7 °F 55% 30.07 in 10.0 mi NE 8.1 mph - N/A   Overcast
12:56 AM 36.5 °F 31.8 °F 22.3 °F 56% 30.07 in 10.0 mi NE 5.8 mph - N/A   Overcast
1:16 AM 36.5 °F 31.0 °F 22.1 °F 56% 30.08 in 10.0 mi ENE 6.9 mph - N/A   Overcast
1:35 AM 36.5 °F 29.2 °F 21.4 °F 54% 30.06 in 10.0 mi ENE 10.4 mph - N/A   Overcast
1:56 AM 36.5 °F 29.2 °F 21.7 °F 55% 30.05 in 10.0 mi ENE 10.4 mph - N/A   Overcast
2:16 AM 36.5 °F 29.7 °F 21.6 °F 55% 30.02 in 10.0 mi NE 9.2 mph - N/A   Overcast
2:35 AM 36.5 °F 28.2 °F 22.6 °F 57% 30.01 in 10.0 mi NE 12.7 mph - N/A   Overcast
2:56 AM 36.1 °F 28.2 °F 23.4 °F 60% 30.00 in 10.0 mi ENE 11.5 mph 16.1 mph N/A   Overcast
3:16 AM 36.0 °F 28.0 °F 24.8 °F 64% 30.00 in 10.0 mi ENE 11.5 mph - N/A   Overcast
3:35 AM 35.8 °F 27.8 °F 25.7 °F 67% 29.99 in 10.0 mi ENE 11.5 mph - N/A   Overcast
3:56 AM 35.8 °F 27.3 °F 26.4 °F 69% 29.99 in 10.0 mi NE 12.7 mph 18.4 mph N/A   Overcast
4:16 AM 36.0 °F 29.0 °F 26.6 °F 69% 29.99 in 10.0 mi NE 9.2 mph - N/A   Overcast
4:35 AM 35.8 °F 28.8 °F 26.6 °F 69% 30.01 in 10.0 mi NE 9.2 mph - N/A   Overcast
4:56 AM 35.6 °F 27.1 °F 26.6 °F 70% 30.01 in 10.0 mi ENE 12.7 mph 16.1 mph N/A   Overcast
5:15 AM 35.6 °F 28.6 °F 26.4 °F 69% 30.00 in 10.0 mi NE 9.2 mph - N/A   Overcast
5:35 AM 35.6 °F 28.6 °F 26.2 °F 69% 30.00 in 10.0 mi NE 9.2 mph - N/A   Overcast
5:56 AM 35.6 °F 28.6 °F 26.1 °F 68% 29.99 in 10.0 mi NE 9.2 mph - N/A   Overcast
6:15 AM 35.6 °F 28.6 °F 26.2 °F 69% 29.98 in 10.0 mi ENE 9.2 mph 13.8 mph N/A   Overcast
6:35 AM 35.6 °F 28.0 °F 26.6 °F 70% 29.98 in 10.0 mi East 10.4 mph 16.1 mph N/A   Overcast
6:56 AM 35.6 °F 27.1 °F 27.0 °F 71% 29.98 in 10.0 mi East 12.7 mph 18.4 mph N/A   Overcast
7:15 AM 34.9 °F 25.3 °F 27.1 °F 73% 29.99 in 10.0 mi ENE 15.0 mph 19.6 mph N/A   Overcast
7:35 AM 34.7 °F 26.4 °F 27.1 °F 74% 29.99 in 10.0 mi ENE 11.5 mph 17.3 mph N/A   Overcast
7:56 AM 34.7 °F 26.9 °F 28.2 °F 77% 30.00 in 10.0 mi ENE 10.4 mph - N/A   Overcast
8:15 AM 34.3 °F 26.5 °F 27.9 °F 77% 29.99 in 7.0 mi NE 10.4 mph - N/A   Overcast
8:35 AM 33.8 °F 25.3 °F 28.9 °F 82% 29.98 in 5.0 mi NE 11.5 mph - N/A Snow Light Snow
8:56 AM 32.9 °F 22.8 °F 28.9 °F 85% 29.97 in 7.0 mi ENE 15.0 mph 18.4 mph N/A   Overcast
9:15 AM 32.9 °F 23.7 °F 29.3 °F 87% 29.96 in 5.0 mi NE 12.7 mph 19.6 mph N/A   Overcast
9:35 AM 32.5 °F 23.2 °F 29.7 °F 89% 29.96 in 5.0 mi NE 12.7 mph 20.7 mph N/A   Overcast
9:56 AM 32.9 °F 24.1 °F 30.0 °F 89% 29.94 in 7.0 mi NE 11.5 mph 19.6 mph N/A   Overcast
10:15 AM 32.9 °F 23.2 °F 29.8 °F 88% 29.94 in 7.0 mi NE 13.8 mph - N/A   Overcast
10:35 AM 32.9 °F 23.7 °F 29.7 °F 88% 29.94 in 10.0 mi NE 12.7 mph 20.7 mph N/A   Overcast
10:56 AM 33.3 °F 23.7 °F 29.7 °F 87% 29.93 in 10.0 mi NE 13.8 mph 23.0 mph N/A   Overcast
11:15 AM 33.8 °F 25.3 °F 29.7 °F 85% 29.93 in 10.0 mi NE 11.5 mph 20.7 mph N/A   Overcast
11:35 AM 33.8 °F 24.8 °F 29.3 °F 84% 29.93 in 10.0 mi NE 12.7 mph 19.6 mph N/A   Overcast
11:56 AM 34.3 °F 24.6 °F 29.5 °F 82% 29.92 in 10.0 mi NE 15.0 mph 21.9 mph N/A   Overcast
12:15 PM 34.3 °F 26.5 °F 29.3 °F 82% 29.92 in 10.0 mi NE 10.4 mph 18.4 mph N/A   Overcast
12:35 PM 34.7 °F 28.1 °F 28.9 °F 79% 29.93 in 10.0 mi ENE 8.1 mph 17.3 mph N/A   Overcast
12:56 PM 34.2 °F 24.4 °F 28.8 °F 81% 29.93 in 5.0 mi ENE 15.0 mph 20.7 mph N/A   Haze
1:15 PM 33.8 °F 25.3 °F 30.0 °F 86% 29.92 in 2.5 mi ENE 11.5 mph - N/A Rain Light Rain
1:35 PM 33.8 °F 26.4 °F 30.7 °F 89% 29.92 in 3.0 mi ENE 9.2 mph - N/A   Light Drizzle
1:56 PM 33.8 °F 26.4 °F 31.1 °F 90% 29.91 in 3.0 mi NE 9.2 mph - N/A   Overcast
2:15 PM 33.3 °F 22.8 °F 30.4 °F 89% 29.90 in 5.0 mi ENE 16.1 mph - N/A   Overcast
2:36 PM 33.8 °F 25.3 °F 29.5 °F 84% 29.89 in 10.0 mi ENE 11.5 mph - N/A   Overcast
2:56 PM 33.8 °F 24.8 °F 28.4 °F 81% 29.88 in 10.0 mi NE 12.7 mph 20.7 mph N/A   Overcast
3:15 PM 33.8 °F 23.2 °F 27.7 °F 78% 29.87 in 10.0 mi ENE 17.3 mph - N/A   Overcast
3:36 PM 32.9 °F 25.3 °F 28.2 °F 83% 29.87 in 10.0 mi NE 9.2 mph 19.6 mph N/A Rain Light Rain
3:56 PM 32.9 °F 25.9 °F 29.3 °F 87% 29.87 in 5.0 mi NE 8.1 mph - N/A Rain Light Rain
4:15 PM 32.4 °F 25.3 °F 29.1 °F 88% 29.87 in 3.0 mi NE 8.1 mph - N/A Snow Light Snow
4:36 PM 32.0 °F 24.8 °F 28.4 °F 87% 29.87 in 2.5 mi NE 8.1 mph - N/A Snow Light Snow
4:56 PM 31.8 °F 24.6 °F 29.1 °F 90% 29.86 in 0.8 mi NE 8.1 mph - N/A Snow Light Snow
5:15 PM 31.6 °F 25.1 °F 29.3 °F 91% 29.87 in 0.5 mi NE 6.9 mph 18.4 mph N/A Snow Light Snow
5:36 PM 31.6 °F 24.4 °F 29.7 °F 92% 29.87 in 0.8 mi NNE 8.1 mph - N/A Snow Light Snow
5:56 PM 31.6 °F 23.1 °F 29.8 °F 93% 29.86 in 0.8 mi NNE 10.4 mph - N/A Snow Light Snow
6:15 PM 31.6 °F 24.4 °F 29.8 °F 93% 29.87 in 1.2 mi NNE 8.1 mph - N/A Snow Light Snow
6:36 PM 31.6 °F 23.7 °F 30.0 °F 94% 29.88 in 0.8 mi NNE 9.2 mph 16.1 mph N/A Snow Light Snow
6:55 PM 31.6 °F 24.4 °F 30.0 °F 94% 29.88 in 0.5 mi North 8.1 mph - N/A Snow Snow
7:15 PM 30.6 °F 22.4 °F 28.9 °F 94% 29.87 in 0.5 mi North 9.2 mph 16.1 mph N/A Snow Snow
7:36 PM 30.2 °F 21.9 °F 28.4 °F 93% 29.87 in 1.0 mi North 9.2 mph - N/A Snow Light Snow
7:55 PM 30.0 °F 22.4 °F 28.4 °F 94% 29.87 in 1.0 mi North 8.1 mph - N/A Snow Snow
8:15 PM 29.7 °F 19.6 °F 27.9 °F 93% 29.85 in 1.0 mi North 12.7 mph 19.6 mph N/A Snow Light Snow
8:36 PM 29.7 °F 19.6 °F 27.9 °F 93% 29.85 in 0.8 mi North 12.7 mph 17.3 mph N/A Snow Snow
8:55 PM 29.3 °F 19.6 °F 27.5 °F 93% 29.87 in 1.2 mi North 11.5 mph 16.1 mph N/A Snow Light Snow
9:15 PM 29.3 °F 21.5 °F 27.5 °F 93% 29.85 in 1.5 mi North 8.1 mph - N/A Snow Light Snow
9:36 PM 28.8 °F 19.5 °F 27.0 °F 93% 29.84 in 1.0 mi North 10.4 mph - N/A Snow Snow
10:55 PM 28.0 °F 20.0 °F 25.7 °F 91% 29.84 in 3.0 mi North 8.1 mph - N/A Snow Light Snow
11:15 PM 27.9 °F 18.4 °F 25.7 °F 92% 29.82 in 3.0 mi North 10.4 mph 16.1 mph N/A Snow Light Snow
11:36 PM 27.5 °F 18.6 °F 25.5 °F 92% 29.83 in 3.0 mi North 9.2 mph - N/A Snow Light Snow
11:55 PM 27.5 °F 18.6 °F 25.3 °F 92% 29.82 in 2.0 mi North 9.2 mph - N/A Snow Light Snow